Location: ??
(34.7252°N, 135.5457°E)
Time: 09:49:20
(UTC+00:00)

USA 234 - Pass Details

Date: 24 September 2020
Orbit: 1102 x 1106 km, 123.0° (Epoch: 16 October)

Event Time Altitude Azimuth Distance (km) Brightness Sun altitude
Rises 19:02:07 0° 117° (ESE) 3,908 6.9 -22.3°
Reaches altitude 10° 19:04:40 10° 112° (ESE) 2,952 6.2 -21.8°
Maximum altitude 19:10:53 50° 39° (NE) 1,376 4.1 -20.6°
Drops below altitude 10° 19:17:08 10° 327° (NNW) 2,962 5.3 -19.3°
Sets 19:19:41 0° 322° (NW) 3,922 5.9 -18.8°
